Temp
34 33 32 31 31 30 29 30 32 32 32 33 33 34 34 33 34 33 31 31 32 31
34 34 33 32 32 31 30 34 31 31 31 34 33 34 34 33 31 31 31 31 31 31
34 34 34 33 32 31 31 31 31 30 30 33 33 33 35 33 32 30 31 31 31 31
34 34 34 33 32 31 31 30 30 30 30 30 31 33 34 33 31 30 30 31 31 31
34 34 33 32 33 32 30 31 30 29 30 31 33 33 32 31 30 29 29 30 31 31
33 33 32 32 32 32 31 30 29 29 30 30 32 31 31 30 30 30 30 30 30 31
32 33 32 32 32 32 31 30 29 29 30 31 32 32 32 31 30 30 30 31 31 32
34 34 33 32 32 31 31 30 29 28 29 31 33 34 32 30 30 30 30 30 31 32
35 34 33 32 31 30 29 29 28 27 27 28 33 35 35 32 30 31 30 29 30 31
35 34 33 32 31 29 28 27 26 27 27 27 31 35 34 33 29 29 30 29 29 31
35 33 32 31 29 28 28 26 26 26 27 27 30 35 34 33 29 29 30 30 30 29
34 33 31 29 28 27 26 26 26 27 26 26 27 35 34 31 29 29 28 30 31 30
34 31 29 28 27 27 26 27 27 28 26 29 27 34 34 32 28 25 27 28 29 33
32 30 29 28 27 26 25 26 24 25 26 27 28 30 34 33 28 25 25 26 26 29
MSLP
1027.06 1026.78 1026.50 1026.20 1025.78 1025.50 1025.25 1024.80 1023.99 1023.38 1022.57 1021.70 1020.92 1020.08 1019.17 1018.35 1017.63 1016.98 1016.18 1015.15 1013.94 1012.95
1027.21 1026.93 1026.70 1026.26 1025.94 1025.76 1025.50 1024.86 1024.34 1023.70 1022.91 1021.84 1021.07 1020.28 1019.21 1018.48 1017.85 1017.14 1016.24 1015.05 1013.85 1012.53
1027.43 1027.12 1026.83 1026.47 1026.22 1025.98 1025.67 1025.25 1024.65 1024.06 1023.36 1022.31 1021.39 1020.42 1019.44 1018.82 1018.18 1017.31 1016.39 1015.20 1013.78 1012.29
1027.67 1027.38 1027.08 1026.92 1026.66 1026.32 1025.94 1025.58 1025.06 1024.47 1023.79 1022.81 1021.78 1020.77 1019.96 1019.19 1018.48 1017.56 1016.51 1015.31 1014.16 1012.26
1027.99 1027.73 1027.51 1027.34 1027.11 1026.76 1026.50 1026.00 1025.65 1024.99 1024.18 1023.26 1022.20 1021.24 1020.53 1019.72 1018.86 1018.00 1016.76 1015.47 1014.42 1012.97
1028.34 1028.07 1027.98 1027.78 1027.54 1027.22 1026.96 1026.56 1026.11 1025.49 1024.66 1023.72 1022.80 1021.91 1021.15 1020.51 1019.53 1018.50 1017.51 1016.13 1014.80 1013.71
1028.66 1028.42 1028.31 1028.18 1028.03 1027.80 1027.51 1027.15 1026.65 1026.13 1025.38 1024.30 1023.40 1022.49 1021.77 1021.08 1020.19 1019.23 1018.19 1016.85 1015.64 1014.53
1028.88 1028.64 1028.60 1028.59 1028.52 1028.29 1028.03 1027.69 1027.26 1026.67 1025.95 1024.91 1023.86 1023.15 1022.39 1021.77 1020.87 1019.93 1018.90 1017.85 1016.75 1015.83
1029.11 1028.99 1029.05 1029.06 1029.00 1028.82 1028.62 1028.36 1027.92 1027.28 1026.69 1025.81 1024.73 1023.90 1023.11 1022.47 1021.71 1020.87 1019.80 1018.77 1017.94 1017.18
1029.43 1029.39 1029.49 1029.54 1029.53 1029.39 1029.21 1028.98 1028.64 1028.07 1027.48 1026.79 1025.67 1024.66 1023.95 1023.23 1022.55 1021.77 1021.14 1020.18 1019.20 1018.43
1029.72 1029.92 1030.02 1030.11 1030.18 1030.06 1029.83 1029.59 1029.36 1028.81 1028.23 1027.68 1026.73 1025.51 1024.79 1024.13 1023.61 1023.03 1022.39 1021.62 1020.80 1019.90
1030.29 1030.55 1030.68 1030.84 1030.89 1030.80 1030.58 1030.28 1030.02 1029.61 1028.92 1028.27 1027.61 1026.38 1025.68 1025.15 1024.45 1023.97 1023.48 1022.96 1022.16 1021.30
1030.78 1031.01 1031.19 1031.30 1031.40 1031.39 1031.16 1030.98 1030.64 1030.15 1029.58 1029.04 1028.38 1027.24 1026.57 1026.19 1025.79 1025.15 1024.64 1024.19 1023.61 1022.68
1031.23 1031.54 1031.76 1031.84 1031.92 1031.93 1031.80 1031.55 1031.18 1030.79 1030.26 1029.64 1029.17 1028.37 1027.51 1027.11 1026.78 1026.54 1026.05 1025.48 1024.94 1024.29
Wind_Speed
4 3 3 3 3 4 4 6 10 10 11 11 11 11 12 8 9 11 9 13 12 9
5 5 4 5 4 4 5 7 10 10 11 13 12 12 13 8 11 11 10 11 12 11
5 5 5 5 7 6 6 7 10 10 11 13 13 12 13 10 12 12 10 10 13 13
5 6 6 6 6 6 6 7 10 10 11 12 13 13 13 14 14 14 13 14 13 15
5 6 6 6 6 7 7 8 9 10 10 12 14 14 14 15 14 14 15 15 15 16
5 6 6 6 6 7 7 10 10 11 12 12 12 13 14 14 14 14 14 15 16 16
5 5 5 6 6 7 7 9 10 11 11 12 11 13 14 14 15 15 14 16 16 17
4 5 6 6 6 6 7 9 9 10 12 12 13 12 15 14 15 15 16 17 17 18
5 6 6 6 6 6 7 9 10 11 12 12 11 24 24 19 13 16 17 17 17 16
5 5 6 6 6 6 7 6 9 11 12 13 14 26 24 24 12 14 16 17 17 16
5 6 6 6 6 6 6 8 9 10 11 11 12 24 24 21 12 12 16 17 19 17
6 6 6 6 6 5 6 8 8 7 10 12 12 25 25 17 12 13 15 15 19 19
6 6 6 5 5 4 5 6 6 8 9 15 12 23 26 19 9 12 11 13 16 29
6 6 5 5 4 4 5 6 7 8 8 11 14 14 24 26 11 9 9 11 12 13
Wind_Direction
11 17 350 335 343 350 345 333 346 337 335 331 333 337 335 333 344 342 333 324 320 314
12 24 4 345 350 343 337 352 349 339 339 339 338 340 338 343 350 345 336 325 326 321
12 12 16 13 360 348 339 351 353 348 345 339 338 341 349 356 351 346 339 334 334 327
13 14 24 25 13 4 0 354 1 350 344 340 339 341 354 356 355 350 344 343 345 335
24 26 30 25 16 10 7 3 1 353 350 348 349 356 360 357 352 352 349 347 349 349
28 32 31 25 20 16 7 8 4 1 358 350 354 3 3 0 352 354 355 353 352 358
32 33 34 30 26 21 9 13 8 3 357 355 3 9 5 0 0 2 2 2 3 6
42 37 38 37 31 26 19 16 10 5 2 4 13 12 10 4 3 7 10 11 9 11
51 39 38 42 41 32 22 19 14 11 5 2 12 16 16 17 7 13 16 14 13 16
59 47 41 43 44 25 22 13 16 11 8 7 9 18 18 14 10 15 19 20 14 17
67 56 46 49 44 27 20 23 19 10 6 7 4 18 20 12 14 21 22 22 22 19
72 66 53 48 38 21 25 22 20 17 6 13 4 19 23 19 15 21 24 22 24 26
75 78 72 62 46 29 30 31 15 24 15 15 9 16 26 27 16 25 20 23 24 28
78 78 68 64 46 40 34 32 19 17 9 21 18 17 29 32 26 22 23 26 21 24